DW4238 Weather Reports


time (UTC)temp
F
wind
direction
speed
knots
gust
knots
rain 1hr
in
rain 24hr
in
rain mn
in
humidity
%
barometer
mb
20260509074606 74 150 0.0 0.0 0.00 0.09 0.00 93 1009.5
20260509074117 74 150 0.0 0.9 0.00 0.09 0.00 93 1009.5
20260509073620 74 150 0.0 2.6 0.00 0.09 0.00 93 1009.4
20260509073047 74 150 0.9 4.3 0.00 0.09 0.00 93 1009.5
20260509072551 74 150 1.7 4.3 0.00 0.09 0.00 93 1009.5
20260509071611 74 150 2.6 6.1 0.00 0.09 0.00 93 1009.5
20260509071027 74 148 2.6 6.1 0.00 0.09 0.00 93 1009.5
20260509070027 74 163 4.3 7.8 0.00 0.09 0.00 93 1009.3
20260509065541 74 159 3.5 7.8 0.00 0.09 0.00 93 1009.1
20260509065024 74 144 5.2 7.0 0.00 0.09 0.00 93 1009.1
20260509064545 74 163 3.5 7.0 0.00 0.09 0.00 93 1009.2
20260509064028 74 149 3.5 6.1 0.00 0.09 0.00 92 1009.2
20260509063545 74 159 4.3 6.1 0.00 0.09 0.00 92 1009.1
20260509063044 74 150 3.5 6.1 0.00 0.09 0.00 92 1009.2
20260509062524 74 155 3.5 7.0 0.00 0.09 0.00 92 1009.1
20260509062032 74 144 4.3 8.7 0.00 0.09 0.00 92 1009.1
20260509061531 74 150 5.2 8.7 0.00 0.09 0.00 92 1009.0
20260509061041 74 139 3.5 9.6 0.00 0.09 0.00 92 1009.1
20260509060525 74 146 7.0 9.6 0.00 0.09 0.00 92 1009.2
20260509060022 74 161 6.1 11.3 0.00 0.09 0.00 92 1009.2
20260509055532 74 148 9.6 11.3 0.00 0.09 0.00 92 1009.4
20260509055022 74 144 7.0 10.4 0.00 0.09 0.00 92 1009.4
20260509054534 74 161 7.0 10.4 0.00 0.09 0.00 92 1009.5
20260509054025 74 153 6.1 8.7 0.00 0.09 0.00 92 1009.4
20260509053553 74 153 6.1 10.4 0.00 0.09 0.00 92 1009.4
20260509053033 74 144 7.0 11.3 0.00 0.09 0.00 92 1009.4
20260509052522 74 143 7.8 12.2 0.00 0.09 0.00 92 1009.3
20260509052037 74 155 8.7 12.2 0.00 0.09 0.00 92 1009.2
20260509051524 74 136 9.6 12.2 0.00 0.09 0.00 92 1009.1
20260509051053 74 148 6.1 10.4 0.00 0.09 0.00 92 1009.1
20260509050526 74 171 7.0 12.2 0.00 0.09 0.00 92 1009.0
20260509050041 74 161 7.0 12.2 0.00 0.09 0.09 92 1009.0
20260509045543 74 163 9.6 12.2 0.00 0.09 0.09 92 1009.0
20260509044611 74 144 4.3 9.6 0.00 0.09 0.09 92 1009.1
20260509044114 74 147 5.2 10.4 0.00 0.09 0.09 91 1009.1
20260509043525 74 134 6.1 12.2 0.00 0.09 0.09 91 1009.0
20260509042631 74 142 7.8 12.2 0.00 0.09 0.09 91 1009.0
20260509042112 74 148 7.8 12.2 0.00 0.09 0.09 91 1009.1
20260509041538 74 140 7.8 11.3 0.00 0.09 0.09 91 1009.2
20260509041041 74 149 7.0 10.4 0.00 0.09 0.09 91 1009.1
20260509040111 74 144 7.0 8.7 0.00 0.09 0.09 91 1009.3
20260509035553 74 139 4.3 7.8 0.00 0.09 0.09 91 1009.3
20260509034612 74 142 3.5 7.0 0.00 0.09 0.09 91 1009.1
20260509034127 74 143 2.6 7.0 0.00 0.09 0.09 91 1009.1
20260509033105 74 146 6.1 8.7 0.00 0.09 0.09 91 1009.1
20260509032616 74 149 6.1 9.6 0.00 0.09 0.09 90 1009.2
20260509032055 74 140 6.1 9.6 0.00 0.09 0.09 90 1009.2
20260509031526 74 144 6.1 8.7 0.00 0.09 0.09 90 1009.1
20260509031029 75 150 5.2 13.0 0.00 0.09 0.09 90 1009.1
20260509030058 75 142 5.2 8.7 0.00 0.09 0.09 89 1009.1
20260509025541 75 155 5.2 8.7 0.00 0.09 0.09 89 1008.9
20260509024612 75 157 2.6 6.1 0.00 0.09 0.09 89 1008.8
20260509024112 75 150 3.5 6.1 0.00 0.09 0.09 89 1008.7
20260509023558 75 150 3.5 7.8 0.00 0.09 0.09 89 1008.5
20260509023021 75 140 2.6 7.8 0.00 0.09 0.09 88 1008.3
20260509022531 75 126 3.5 6.1 0.00 0.09 0.09 88 1008.4
20260509021553 75 128 3.5 7.0 0.00 0.09 0.09 88 1008.4
20260509021105 75 139 3.5 7.8 0.00 0.09 0.09 88 1008.3
20260509020608 75 148 4.3 7.8 0.00 0.09 0.09 88 1008.3
20260509020038 76 146 4.3 7.0 0.00 0.09 0.09 88 1008.3
20260509015541 76 134 5.2 7.0 0.00 0.09 0.09 88 1008.3
20260509014542 76 143 5.2 7.8 0.00 0.09 0.09 87 1008.4
20260509014030 76 172 3.5 7.0 0.00 0.09 0.09 87 1008.5
20260509013051 76 142 2.6 7.0 0.00 0.09 0.09 86 1008.1
20260509012601 76 144 4.3 7.0 0.00 0.09 0.09 86 1008.0
20260509012106 77 138 4.3 7.8 0.00 0.09 0.09 86 1007.9
20260509011532 77 146 5.2 7.8 0.00 0.09 0.09 86 1008.0
20260509011040 77 153 4.3 7.0 0.00 0.09 0.09 86 1008.1
20260509010043 77 137 5.2 8.7 0.00 0.09 0.09 85 1008.1
20260509005554 77 134 2.6 4.3 0.00 0.09 0.09 85 1008.0
20260509005055 77 134 1.7 4.3 0.00 0.09 0.09 85 1007.9
20260509004526 77 136 2.6 4.3 0.00 0.09 0.09 85 1007.9
20260509004038 77 135 2.6 4.3 0.00 0.09 0.09 85 1008.1
20260509003057 77 128 1.7 4.3 0.00 0.09 0.09 84 1008.0
20260509002608 78 127 1.7 6.1 0.00 0.09 0.09 84 1008.0
20260509002115 78 115 2.6 6.1 0.00 0.09 0.09 84 1008.0
20260509001542 78 138 2.6 7.0 0.00 0.09 0.09 84 1008.1
20260509001046 78 144 2.6 5.2 0.00 0.09 0.09 84 1008.1
20260509000053 78 132 3.5 7.0 0.00 0.09 0.09 83 1008.1
20260508235613 78 135 3.5 6.1 0.00 0.09 0.09 83 1008.0
20260508235126 78 111 2.6 7.0 0.00 0.09 0.09 83 1007.9
20260508234023 78 125 3.5 6.1 0.00 0.09 0.09 83 1008.0
20260508233022 78 113 2.6 5.2 0.00 0.09 0.09 83 1008.1
20260508232538 78 96 1.7 7.0 0.00 0.09 0.09 83 1008.0
20260508231557 78 119 3.5 7.8 0.00 0.09 0.09 84 1008.0
20260508231110 78 79 4.3 7.8 0.00 0.09 0.09 83 1008.0
20260508230611 78 87 3.5 7.0 0.00 0.09 0.09 83 1008.1
20260508230037 78 126 3.5 7.8 0.00 0.09 0.09 83 1008.1
20260508225540 78 71 3.5 7.8 0.00 0.09 0.09 83 1008.0
20260508224540 78 117 4.3 7.0 0.00 0.09 0.09 83 1008.1
20260508224050 78 139 1.7 6.1 0.00 0.09 0.09 83 1008.2
20260508223612 78 90 3.5 6.1 0.00 0.09 0.09 83 1008.1
20260508223041 78 155 2.6 5.2 0.00 0.09 0.09 83 1008.2
20260508222551 78 84 2.6 5.2 0.00 0.09 0.09 83 1008.2
20260508221612 78 116 3.5 7.0 0.00 0.09 0.09 83 1008.3
20260508221053 78 146 2.6 4.3 0.00 0.09 0.09 83 1008.3
20260508220121 77 172 1.7 4.3 0.00 0.09 0.09 83 1008.3
20260508215602 77 171 1.7 6.1 0.00 0.09 0.09 84 1008.3
20260508215113 77 181 3.5 6.1 0.00 0.09 0.09 84 1008.4
20260508214530 77 144 2.6 6.1 0.00 0.09 0.09 83 1008.6
20260508213615 77 165 4.3 7.0 0.00 0.09 0.09 83 1008.6
20260508213024 77 146 2.6 4.3 0.00 0.09 0.09 83 1008.6
20260508212606 77 140 2.6 6.1 0.00 0.09 0.09 83 1008.7
20260508212116 77 138 3.5 6.1 0.00 0.09 0.09 83 1008.7
20260508211523 77 114 1.7 6.1 0.00 0.09 0.09 84 1008.8
20260508211028 77 100 3.5 6.1 0.00 0.09 0.09 84 1008.8
20260508210638 76 144 2.6 5.2 0.00 0.09 0.09 84 1008.8
20260508210036 76 182 1.7 3.5 0.00 0.09 0.09 84 1008.9
20260508205545 76 182 1.7 4.3 0.00 0.09 0.09 84 1009.0
20260508204606 76 143 2.6 6.1 0.00 0.09 0.09 84 1009.1
20260508204055 76 142 2.6 4.3 0.00 0.09 0.09 84 1009.2
20260508203052 76 139 1.7 7.0 0.00 0.09 0.09 84 1009.2
20260508202605 76 150 4.3 7.0 0.00 0.09 0.09 84 1009.3
20260508202108 76 121 2.6 6.1 0.00 0.09 0.09 85 1009.4
20260508201534 75 173 3.5 9.6 0.00 0.09 0.09 84 1009.5
20260508201034 75 176 5.2 9.6 0.00 0.09 0.09 84 1009.7
20260508195522 75 140 2.6 4.3 0.00 0.09 0.09 84 1009.9
20260508195032 76 107 2.6 7.8 0.00 0.09 0.09 84 1009.9
20260508194612 76 90 3.5 7.8 0.00 0.09 0.09 85 1009.7
20260508194024 75 87 2.6 7.0 0.00 0.09 0.09 85 1009.8
20260508193607 75 145 3.5 7.0 0.00 0.09 0.09 85 1009.9
20260508193039 75 145 2.6 7.8 0.00 0.09 0.09 86 1009.9
20260508192543 74 159 5.2 7.8 0.00 0.09 0.09 85 1010.0
20260508191542 74 137 2.6 4.3 0.00 0.09 0.09 85 1010.1
20260508191051 74 108 2.6 3.5 0.00 0.09 0.09 85 1010.3
20260508190048 74 105 2.6 6.1 0.00 0.09 0.09 85 1010.4
20260508185558 74 91 3.5 6.1 0.00 0.09 0.09 86 1010.3
20260508184619 74 63 3.5 5.2 0.00 0.09 0.09 87 1010.4
20260508184102 73 99 0.9 6.1 0.00 0.09 0.09 86 1010.6
20260508183045 73 98 2.6 7.0 0.00 0.09 0.09 86 1010.8
20260508182534 73 83 2.6 7.0 0.00 0.09 0.09 87 1010.9
20260508181555 72 80 3.5 7.0 0.00 0.09 0.09 86 1010.9
20260508181107 72 26 3.5 5.2 0.00 0.09 0.09 87 1010.9
20260508180610 72 71 2.6 5.2 0.00 0.09 0.09 87 1011.0
20260508180034 71 119 2.6 7.0 0.00 0.09 0.09 87 1011.0
20260508175547 71 110 3.5 5.2 0.00 0.09 0.09 88 1011.1
20260508175031 70 113 2.6 6.1 0.00 0.09 0.09 88 1011.1
20260508174613 70 113 3.5 6.1 0.00 0.09 0.09 88 1011.1
20260508174027 70 138 2.6 6.1 0.00 0.09 0.09 88 1011.3
20260508173049 70 124 2.6 4.3 0.00 0.09 0.09 88 1011.4
20260508172600 70 128 2.6 7.0 0.00 0.09 0.09 88 1011.4
20260508172103 70 130 3.5 7.0 0.00 0.09 0.09 88 1011.5
20260508171530 69 120 2.6 5.2 0.00 0.09 0.09 88 1011.4
20260508171026 69 126 3.5 5.2 0.00 0.09 0.09 88 1011.6
20260508170053 69 137 1.7 6.1 0.00 0.09 0.09 88 1011.9
20260508165556 69 138 2.6 6.1 0.00 0.09 0.09 88 1012.0
20260508164621 68 145 1.7 6.1 0.00 0.09 0.09 88 1012.1
20260508164111 68 146 3.5 6.1 0.00 0.09 0.09 88 1012.1
20260508163620 68 159 2.6 4.3 0.00 0.09 0.09 88 1012.1
20260508163041 68 129 2.6 7.0 0.00 0.09 0.09 88 1012.0
20260508162551 68 77 3.5 8.7 0.00 0.09 0.09 88 1012.0
20260508161611 68 69 5.2 8.7 0.00 0.09 0.09 89 1011.8
20260508161041 68 70 5.2 8.7 0.00 0.09 0.09 89 1011.9
20260508155608 67 76 6.1 8.7 0.00 0.09 0.09 89 1011.9
20260508155119 67 62 4.3 7.8 0.00 0.09 0.09 89 1012.1
20260508154546 67 108 6.1 8.7 0.00 0.09 0.09 89 1012.2
20260508154049 67 87 6.1 11.3 0.00 0.09 0.09 89 1012.1
20260508153049 67 63 6.1 8.7 0.00 0.09 0.09 88 1012.1
20260508152533 67 84 5.2 10.4 0.00 0.09 0.09 89 1012.3
20260508151559 67 137 5.2 8.7 0.00 0.09 0.09 89 1012.3
20260508151045 66 84 5.2 8.7 0.00 0.09 0.09 89 1012.5
20260508150105 66 96 4.3 8.7 0.00 0.09 0.09 90 1012.6
20260508145616 66 80 4.3 7.8 0.00 0.09 0.09 90 1012.6
20260508145115 65 105 3.5 7.0 0.00 0.09 0.09 90 1012.8
20260508144525 65 85 4.3 7.0 0.00 0.09 0.09 90 1012.8
20260508144138 65 68 2.6 7.8 0.00 0.09 0.09 90 1012.8
20260508143621 65 77 6.1 7.8 0.00 0.09 0.09 90 1012.6
20260508143045 65 78 4.3 6.1 0.00 0.09 0.09 90 1012.7
20260508142555 64 78 4.3 5.2 0.00 0.09 0.09 91 1012.8
20260508141615 64 82 3.5 7.0 0.00 0.09 0.09 91 1012.6
20260508141122 64 80 2.6 7.0 0.00 0.09 0.09 91 1012.6
20260508140612 64 29 4.3 7.0 0.00 0.09 0.09 91 1012.5
20260508135530 64 71 5.2 7.0 0.00 0.09 0.09 91 1012.6
20260508134551 63 68 2.6 5.2 0.00 0.09 0.09 91 1012.8
20260508134101 63 53 2.6 5.2 0.00 0.09 0.09 90 1012.8
20260508133604 63 69 2.6 4.3 0.00 0.09 0.09 90 1012.8
20260508133034 63 75 2.6 4.3 0.00 0.09 0.09 90 1012.7
20260508132545 63 55 2.6 4.3 0.00 0.09 0.09 90 1012.6
20260508131605 63 49 1.7 5.2 0.00 0.09 0.09 90 1012.7
20260508131109 63 48 3.5 5.2 0.00 0.09 0.09 90 1012.8
20260508130553 63 37 1.7 5.2 0.00 0.09 0.09 90 1012.8
20260508130024 63 23 3.5 7.0 0.00 0.09 0.09 90 1012.9
20260508125526 63 40 2.6 7.0 0.00 0.09 0.09 89 1012.8
20260508124545 63 38 1.7 4.3 0.08 0.09 0.09 89 1012.9
20260508124054 63 39 1.7 4.3 0.08 0.09 0.09 89 1012.9
20260508123557 63 321 0.9 2.6 0.09 0.09 0.09 89 1012.9
20260508123030 63 321 0.9 1.7 0.09 0.09 0.09 88 1013.0
20260508122542 63 327 0.0 2.6 0.09 0.09 0.09 88 1013.0
20260508121601 63 327 1.7 2.6 0.09 0.09 0.09 88 1013.2
20260508121114 63 327 0.0 0.9 0.09 0.09 0.09 87 1013.2
20260508120616 63 327 0.0 1.7 0.09 0.09 0.09 87 1013.2
20260508120022 63 327 0.9 2.6 0.09 0.09 0.09 87 1013.2
20260508115525 63 327 0.9 2.6 0.09 0.09 0.09 87 1013.1
20260508115041 63 327 0.9 3.5 0.09 0.09 0.09 86 1012.9
20260508114524 64 323 1.7 3.5 0.05 0.05 0.05 86 1012.7
20260508114036 64 304 2.6 5.2 0.01 0.01 0.01 85 1012.9
20260508113620 64 310 2.6 5.2 0.01 0.01 0.01 85 1013.0
20260508113045 64 350 0.9 3.5 0.00 0.00 0.00 85 1012.5
20260508112558 64 10 0.0 0.9 0.00 0.00 0.00 85 1012.7
20260508112117 64 10 0.0 2.6 0.00 0.00 0.00 85 1012.6
20260508111540 64 5 0.0 3.5 0.00 0.00 0.00 85 1012.6
20260508111025 64 355 1.7 3.5 0.00 0.00 0.00 84 1012.6
20260508110045 64 342 0.0 4.3 0.00 0.00 0.00 85 1012.4
20260508105555 64 355 2.6 4.3 0.00 0.00 0.00 85 1012.4
20260508104620 64 24 1.7 4.3 0.00 0.00 0.00 84 1012.4
20260508104109 64 32 1.7 4.3 0.00 0.00 0.00 85 1012.4
20260508103612 64 34 2.6 4.3 0.00 0.00 0.00 84 1012.5
20260508103039 64 57 2.6 4.3 0.00 0.00 0.00 84 1012.7
20260508102549 64 53 2.6 4.3 0.00 0.00 0.00 85 1012.8
20260508101542 64 48 1.7 4.3 0.00 0.00 0.00 84 1012.9
20260508101053 64 60 2.6 5.2 0.00 0.00 0.00 84 1012.7
20260508100051 64 74 3.5 4.3 0.00 0.00 0.00 84 1012.6
20260508095604 64 32 2.6 3.5 0.00 0.00 0.00 84 1012.7
20260508094604 64 30 3.5 7.0 0.00 0.00 0.00 84 1012.6
20260508094103 64 36 2.6 7.0 0.00 0.00 0.00 84 1012.4
20260508093109 64 32 2.6 4.3 0.00 0.00 0.00 84 1012.7
20260508092612 64 30 2.6 4.3 0.00 0.00 0.00 84 1012.7
20260508091559 64 37 1.7 4.3 0.00 0.00 0.00 84 1012.7
20260508091101 64 48 2.6 4.3 0.00 0.00 0.00 84 1012.7
20260508090049 64 59 1.7 4.3 0.00 0.00 0.00 84 1012.3
20260508085559 64 53 0.9 4.3 0.00 0.00 0.00 84 1012.3
20260508084622 64 49 2.6 4.3 0.00 0.00 0.00 84 1012.3
20260508084111 63 42 2.6 6.1 0.00 0.00 0.00 84 1012.6
20260508083614 63 45 3.5 6.1 0.00 0.00 0.00 84 1012.5
20260508083024 63 53 2.6 7.8 0.00 0.00 0.00 84 1012.2
20260508082535 63 55 3.5 7.8 0.00 0.00 0.00 84 1012.0
20260508081556 63 70 2.6 3.5 0.00 0.00 0.00 84 1012.2
20260508081059 63 49 1.7 7.8 0.00 0.00 0.00 84 1012.4
20260508080604 63 46 2.6 7.8 0.00 0.00 0.00 84 1012.5
20260508075523 63 29 3.5 5.2 0.00 0.00 0.00 84 1012.8